[TLELIST] Archives

 

[list_settings.list_name] Current TLEs

December 2nd 2008 PST

HST 1 20580U 90037B 08335.23908648 .00000324 00000-0 12241-4 0 2731 2 20580 028.4712 320.1499 0003395 347.1032 012.9469 15.00433192819949 ISS (ZARYA) 1 25544U 98067A 08336.22280814 .00014387 00000-0 11363-3 0 7669 2 25544 051.6423 240.2350 0006647 051.7919 093.6461 15.71656983574819 CXO 1 25867U 99040B 08318.29166667 +.00000554 +00000-0 +10000-3 0 02646 2 25867 064.4828 076.2712 7104876 277.4282 356.9984 00.37801401004194 ____________________________________________________________________ These 2-Line ...Continue Reading

[list_settings.list_name] Current TLEs

December 1st 2008 PST

HST 1 20580U 90037B 08335.23908648 .00000324 00000-0 12241-4 0 2731 2 20580 028.4712 320.1499 0003395 347.1032 012.9469 15.00433192819949 ISS (ZARYA) 1 25544U 98067A 08334.54218750 .00025860 00000-0 20055-3 0 7556 2 25544 051.6425 248.8374 0006898 046.3246 303.9711 15.71618375574540 CXO 1 25867U 99040B 08318.29166667 +.00000554 +00000-0 +10000-3 0 02646 2 25867 064.4828 076.2712 7104876 277.4282 356.9984 00.37801401004194 ____________________________________________________________________ These 2-Line ...Continue Reading

[list_settings.list_name] Current TLEs

November 30th 2008 PST

HST 1 20580U 90037B 08333.44313450 .00000328 00000-0 12562-4 0 2722 2 20580 028.4711 331.8628 0003409 327.2299 032.8079 15.00432636819671 ISS (ZARYA) 1 25544U 98067A 08333.52163194 .00003642 00000-0 32415-4 0 7484 2 25544 051.6426 254.0558 0006852 038.4294 293.9806 15.71565036574389 CXO 1 25867U 99040B 08318.29166667 +.00000554 +00000-0 +10000-3 0 02646 2 25867 064.4828 076.2712 7104876 277.4282 356.9984 00.37801401004194 ____________________________________________________________________ These 2-Line ...Continue Reading

[list_settings.list_name] Current TLEs

November 29th 2008 PST

HST 1 20580U 90037B 08332.17931590 .00000311 00000-0 11234-4 0 2718 2 20580 028.4701 340.1043 0003531 311.8479 048.1804 15.00432063819488 ISS (ZARYA) 1 25544U 98067A 08332.33451507 .00013573 00000-0 10791-3 0 7419 2 25544 051.6440 260.1300 0007077 035.2320 056.4033 15.71557911574201 CXO 1 25867U 99040B 08318.29166667 +.00000554 +00000-0 +10000-3 0 02646 2 25867 064.4828 076.2712 7104876 277.4282 356.9984 00.37801401004194 ____________________________________________________________________ These 2-Line ...Continue Reading

[list_settings.list_name] Current TLEs

November 28th 2008 PST

HST 1 20580U 90037B 08332.17931590 .00000311 00000-0 11234-4 0 2718 2 20580 028.4701 340.1043 0003531 311.8479 048.1804 15.00432063819488 ISS (ZARYA) 1 25544U 98067A 08331.55056713 .00040469 00000-0 31141-3 0 7340 2 25544 051.6445 264.1420 0007009 031.6634 301.7668 15.71561244574075 CXO 1 25867U 99040B 08318.29166667 +.00000554 +00000-0 +10000-3 0 02646 2 25867 064.4828 076.2712 7104876 277.4282 356.9984 00.37801401004194 ____________________________________________________________________ These 2-Line ...Continue Reading

[list_settings.list_name] Current TLEs

November 27th 2008 PST

HST 1 20580U 90037B 08330.44988025 .00000315 00000-0 11500-4 0 2700 2 20580 028.4701 351.3831 0003598 292.9132 067.1077 15.00431557819227 ISS (ZARYA) 1 25544U 98067A 08330.42865938 .00034581 00000-0 26587-3 0 7270 2 25544 051.6423 269.8843 0007040 028.2099 073.6491 15.71658884573901 CXO 1 25867U 99040B 08318.29166667 +.00000554 +00000-0 +10000-3 0 02646 2 25867 064.4828 076.2712 7104876 277.4282 356.9984 00.37801401004194 ____________________________________________________________________ These 2-Line ...Continue Reading

[list_settings.list_name] Current TLEs

November 26th 2008 PST

HST 1 20580U 90037B 08329.25257823 .00000318 00000-0 11727-4 0 2694 2 20580 028.4700 359.1910 0003691 279.5639 080.4526 15.00431197819044 ISS (ZARYA) 1 25544U 98067A 08329.41031369 -.00041696 00000-0 -31375-3 0 7199 2 25544 051.6433 275.0935 0006737 025.8440 070.4655 15.71611429573741 CXO 1 25867U 99040B 08318.29166667 +.00000554 +00000-0 +10000-3 0 02646 2 25867 064.4828 076.2712 7104876 277.4282 356.9984 00.37801401004194 ____________________________________________________________________ These 2-Line ...Continue Reading

[list_settings.list_name] Current TLEs

November 25th 2008 PST

HST 1 20580U 90037B 08329.25257823 .00000318 00000-0 11727-4 0 2694 2 20580 028.4700 359.1910 0003691 279.5639 080.4526 15.00431197819044 ISS (ZARYA) 1 25544U 98067A 08328.45708493 .00008631 00000-0 69782-4 0 7139 2 25544 051.6424 279.9699 0006643 024.8546 074.3465 15.71761988573594 CXO 1 25867U 99040B 08318.29166667 +.00000554 +00000-0 +10000-3 0 02646 2 25867 064.4828 076.2712 7104876 277.4282 356.9984 00.37801401004194 ____________________________________________________________________ These 2-Line ...Continue Reading

[list_settings.list_name] Current TLEs

November 24th 2008 PST

HST 1 20580U 90037B 08326.52539120 .00000349 00000-0 14129-4 0 2675 2 20580 028.4699 016.9760 0003843 250.0463 109.9713 15.00430513818630 ISS (ZARYA) 1 25544U 98067A 08327.50422674 .00046982 00000-0 35741-3 0 7068 2 25544 051.6394 284.8461 0006240 022.8729 081.1471 15.71771941573443 CXO 1 25867U 99040B 08318.29166667 +.00000554 +00000-0 +10000-3 0 02646 2 25867 064.4828 076.2712 7104876 277.4282 356.9984 00.37801401004194 ____________________________________________________________________ These 2-Line ...Continue Reading

[list_settings.list_name] Current TLEs

November 23rd 2008 PST

HST 1 20580U 90037B 08326.52539120 .00000349 00000-0 14129-4 0 2675 2 20580 028.4699 016.9760 0003843 250.0463 109.9713 15.00430513818630 ISS (ZARYA) 1 25544U 98067A 08326.48639009 .00007032 00000-0 56020-4 0 7007 2 25544 051.6430 290.0546 0004292 015.7586 084.5458 15.72495250573285 CXO 1 25867U 99040B 08318.29166667 +.00000554 +00000-0 +10000-3 0 02646 2 25867 064.4828 076.2712 7104876 277.4282 356.9984 00.37801401004194 ____________________________________________________________________ These 2-Line ...Continue Reading
  • This mailing list is a public mailing list - anyone may join or leave, at any time.
  • This mailing list is announce-only.

International Space Station (ISS) / Hubble Space Telescope (HST) / Chandra X-Ray Observatory Orbital Data via EMAIL

Privacy Policy:

Private list